Regional Weather Roundup
Issued by NWS

Home | Current Version | Previous Version | Text Only | Print | Product List | Glossary On
Versions: 1 2 3 4 5 6 7 8 9 10 11 12 13 14 15 16 17 18 19 20 21 22 23 24 25 26 27 28 29 30 31 32 33 34 35 36 37 38 39 40 41 42 43 44 45 46 47 48 49 50
000
ASUS43 KMKX 232121
RWRWI

WISCONSIN REGIONAL WEATHER ROUNDUP
NATIONAL WEATHER SERVICE MILWAUKEE/SULLIVAN WI
400 PM CDT FRI JUN 23 2017

NOTE: "FAIR" INDICATES FEW OR NO CLOUDS BELOW 12,000 FEET WITH NO
SIGNIFICANT WEATHER AND/OR OBSTRUCTIONS TO VISIBILITY.

WIZ001-002-006>008-014>016-023>028-232200-
NORTHWEST WISCONSIN

CITY           SKY/WX    TMP DP  RH WIND       PRES   REMARKS
SUPERIOR ARPT  NOT AVBL
ASHLAND        CLOUDY    71  49  45 W14G29    29.71R
HAYWARD        PTSUNNY   68  48  48 VRB6      29.74S
SIREN          SUNNY     71  50  47 NW16      29.77F
CUMBERLAND     PTSUNNY   66  48  52 NW10G17   29.77F
RICE LAKE      MOSUNNY   69  49  49 W14G22    29.77F
CHETEK         PTSUNNY   69  53  55 NW8       29.76S
LADYSMITH      CLOUDY    69  50  51 W12G20    29.75F
EAU CLAIRE     PTSUNNY   72  51  47 NW17G24   29.74F
MENOMONIE      PTSUNNY   70  50  49 NW12      29.76F
NEW RICHMOND   PTSUNNY   70  48  46 NW16G22   29.79S
OSCEOLA        CLOUDY    70  50  50 NW23G31   29.81S
$$

WIZ003>005-009-010-017-018-232200-
NORTH CENTRAL WISCONSIN

CITY           SKY/WX    TMP DP  RH WIND       PRES   REMARKS
MANITOWISH WTR CLOUDY    65  49  55 NW14G20   29.71R
ARBOR VITAE    MOSUNNY   69  50  50 W13G22    29.70S
WOODRUFF       MOSUNNY   69  50  50 W13G22    29.70S
RHINELANDER    PTSUNNY   68  48  48 W20G35    29.71R
EAGLE RIVER    PTSUNNY   67  47  48 W15G22    29.69S
LAND O LAKES   PTSUNNY   67  44  43 W12G18    29.71R
PHILLIPS       PTSUNNY   67  49  52 NW9G20    29.71F
TOMAHAWK       NOT AVBL
MEDFORD        CLOUDY    67  52  58 W16       29.73S
MERRILL        CLOUDY    67  51  55 NW13      29.71S
$$

WIZ029-030-035-036-043>047-232200-
CENTRAL WISCONSIN

CITY           SKY/WX    TMP DP  RH WIND       PRES   REMARKS
WAUSAU         CLOUDY    68  50  52 W15       29.69S
MOSINEE        PTSUNNY   72  52  49 W21       29.72S
MARSHFIELD     PTSUNNY   67  50  54 W17G24    29.73S
STEVENS POINT  CLOUDY    68  51  53 W10       29.72S
WAUPACA        PTSUNNY   76  51  40 W15G21    29.70R
WAUTOMA        CLOUDY    72  54  53 NW17G25   29.71R
WISC RAPIDS    LGT RAIN  70  53  54 W14G23    29.74R
CAMP DOUGLAS   PTSUNNY   70  54  56 W12G18    29.75R
$$

WIZ011>013-019>022-031-037>040-048>050-232200-
NORTHEAST WISCONSIN

CITY           SKY/WX    TMP DP  RH WIND       PRES   REMARKS
ANTIGO         PTSUNNY   67  51  55 NW13G20   29.70S
SHAWANO        CLOUDY    73  50  43 W10G17    29.67R
OCONTO         PTSUNNY   76  50  40 NW10G18   29.63R
STURGEON BAY     N/A     76  52  43 W14G24      N/A
GREEN BAY      MOSUNNY   76  54  46 W17G24    29.64F
MANITOWOC      MOSUNNY   78  51  38 NW15G22   29.64F
APPLETON       PTSUNNY   73  46  38 W18G25    29.66S
CLINTONVILLE   CLOUDY    72  46  40 NW17G26   29.68R
OSHKOSH        SUNNY     75  53  46 NW18G26   29.66R
$$

WIZ032>034-041-042-053>061-232200-
SOUTHWEST WISCONSIN

CITY           SKY/WX    TMP DP  RH WIND       PRES   REMARKS
LA CROSSE      CLOUDY    76  55  48 NW14      29.78R
SPARTA         CLOUDY    70  55  59 NW9       29.78R
VIROQUA        CLOUDY    67  55  63 NW14G21   29.80R
BOSCOBEL       CLOUDY    74  53  48 NW13      29.78R
PRAIRIE DU CHI CLOUDY    72  50  46 NW16G22   29.79R
PLATTEVILLE    MOSUNNY   74  56  52 W17G23    29.79R
$$

WIZ056-057-062-063-064-067-068-232200-
SOUTH CENTRAL WISCONSIN

CITY           SKY/WX    TMP DP  RH WIND       PRES   REMARKS
REEDSBURG      PTSUNNY   71  54  54 NW12G23   29.74R
BARABOO/DELLS  MOSUNNY   75  52  45 NW12G18   29.74R
LONE ROCK      MOSUNNY   73  54  51 NW20G26   29.74R
MINERAL POINT  MOSUNNY   73  52  46 W15G24    29.77R
MADISON        PTSUNNY   77  52  41 NW10G22   29.70R
MIDDLETON      PTSUNNY   76  54  46 NW14G23   29.73R
WATERTOWN      MOSUNNY   78  53  40 W15G21    29.69R
MONROE         CLOUDY    77  48  36 W17G28    29.74R
JANESVILLE     PTSUNNY   79  50  36 W16       29.71R
$$

WIZ051-052-058>065-066-070>072-232200-
SOUTHEAST WISCONSIN

CITY           SKY/WX    TMP DP  RH WIND       PRES   REMARKS
MILWAUKEE      PTSUNNY   82  46  28 W14G22    29.68S HX  80
WAUKESHA       MOSUNNY   75  48  38 W13G22    29.70S
MILWAUKEE/TIMM PTSUNNY   79  45  29 W20       29.69S
RACINE         SUNNY     81  47  30 NW15      29.70S HX  80
KENOSHA        SUNNY     80  52  37 W12       29.70S HX  80
FOND DU LAC    MOSUNNY   76  50  40 W14G23    29.67R
SHEBOYGAN      MOSUNNY   78  54  43 W15G29    29.66S
WEST BEND      PTSUNNY   77  50  38 W20G25    29.67S
JUNEAU         MOSUNNY   75  52  43 W15       29.71R
$$

LSZ147-162-232200-
LAKE SUPERIOR

STATION/POSITION TIME  TEMP    WIND        PRES    WAVE
                       AIR SEA DIR/SP/G            HT/PER
                 (UTC) (F)     (DEG/KT/KT) (MB)    (FT/S)
W MID LAKE BUOY  2050   48 39  250/ 14/ 16 1003.9R   2/ 4
DEVILS ISLAND    2100   58     250/ 11/ 15 1005.2R
SAXON HARBOR     2100   64     320/  6/ 24 1005.8
$$

LMZ867-665-643>646-232200-
LAKE MICHIGAN

STATION/POSITION TIME  TEMP    WIND        PRES    WAVE
                       AIR SEA DIR/SP/G            HT/PER
                 (UTC) (F)     (DEG/KT/KT) (MB)    (FT/S)
CHAMBERS ISLAND  2030   75     290/  4/  8 1002.4R
S GREEN BAY BUOY 2100   73     270/ 16/ 17 1003.1
N MID LAKE BUOY  2050   61 56  190/ 10/ 12 1002.5F   1
NORTHPORT PIER   2040   77     280/  5/ 10 1002.0S
KEWAUNEE LAKESHO 2100   77     270/ 12/ 20 1003.2
SHEBOYGAN LAKESH 2100   77     270/ 16/ 20 1003.5S
PORT WASHINGTON  2040   80     300/ 13/ 18 1005.1S
ATWATER BUOY     2009   72 59  290/ 12/ 14 1005.1F
MILWAUKEE LAKESH 2100   78     300/ 13/ 16   N/A
S MID LAKE BUOY  2050   65 63  220/  6/  8 1005.2F   0
KENOSHA   LAKESH 2100   79     310/ 11/ 17 1005.1
$$

TC  - TEMPERATURE IN CELSIUS
VSB - VISIBILITY IN STATUTE MILES
WCI - WIND CHILL INDEX
HX  - HEAT INDEX




USA.gov is the U.S. government's official web portal to all federal, state and local government web resources and services.